Date,TemperatureHighF,TemperatureAvgF,TemperatureLowF,DewpointHighF,DewpointAvgF,DewpointLowF,HumidityHigh,HumidityAvg,HumidityLow,PressureMaxIn,PressureMinIn,WindSpeedMaxMPH,WindSpeedAvgMPH,GustSpeedMaxMPH,PrecipitationSumIn
2013-3-23,52,45,40,30,29,27,63,54,43,30.00,29.94,2,0,2,0.00
2013-3-24,40,36,33,35,30,27,91,78,62,29.97,29.63,15,3,15,0.76
2013-3-25,34,33,33,31,31,30,92,91,89,29.64,29.57,6,2,6,0.09
2013-3-26,50,44,35,33,30,27,75,60,47,30.09,29.89,14,3,14,0.00
2013-3-27,53,41,32,29,26,21,77,55,34,30.22,30.09,16,5,16,0.00
2013-3-28,54,42,28,29,25,22,81,53,32,30.30,30.16,15,3,15,0.00
2013-3-29,59,45,30,33,28,23,79,53,29,30.33,30.18,11,2,11,0.00
2013-3-30,64,51,35,38,31,28,79,50,28,30.27,30.12,8,1,8,0.00
2013-3-31,65,54,46,56,47,32,90,78,48,30.14,29.82,9,2,9,0.49
2013-4-1,70,58,47,52,44,28,91,62,33,30.02,29.81,18,4,18,0.02
2013-4-2,56,46,33,29,24,17,78,44,24,30.19,30.02,16,3,16,0.00
2013-4-3,58,46,34,27,20,13,56,37,20,30.37,30.18,12,2,12,0.00
2013-4-4,51,41,34,36,26,17,91,57,34,30.43,29.97,13,3,13,0.91
2013-4-5,64,50,38,46,40,36,93,72,39,30.03,29.89,14,3,14,0.25
2013-4-6,62,51,40,39,29,21,78,46,23,30.32,30.03,14,3,14,0.00
2013-4-7,72,53,34,45,37,27,84,57,35,30.32,30.11,15,2,15,0.00
2013-4-8,79,65,48,58,51,41,88,62,41,30.18,30.06,10,2,10,0.00
2013-4-9,84,72,59,60,56,52,84,60,35,30.19,30.05,10,2,10,0.00
2013-4-10,88,75,64,62,58,55,78,59,39,30.10,29.94,8,2,8,0.00
2013-4-11,81,72,63,64,60,56,82,66,49,29.99,29.83,11,2,11,0.00
2013-4-12,83,72,66,69,62,43,91,70,41,29.84,29.62,14,3,14,0.38
2013-4-13,73,62,50,46,42,37,71,49,34,30.02,29.76,10,2,10,0.00
2013-4-14,79,60,46,45,42,37,82,55,26,30.14,30.02,6,1,6,0.00
2013-11-6,72,72,71,57,57,57,61,61,60,30.07,30.06,11,6,11,0.00
2014-1-2,39,38,38,36,36,35,90,90,89,29.66,29.65,4,2,4,0.00